Simultaneous Nadir Overpasses (SNOs) Predictions

Prediction of SNOs between LANDSAT-8 and NPP Satellite Orbit:

Table of predicted SNOs for the next 14.0 days since TLE Epoch: 6/14/2014
Index Date (LANDSAT-8) Time (LANDSAT-8) Lat,Lon (LANDSAT-8) SZA (LANDSAT-8 ) Date (NPP) Time (NPP) Lat,Lon (NPP) SZA (NPP ) Distance(km) Time Diff (sec)
1 06/15/2014 02:01:16 70.66, 146.86 47.29 06/15/2014 02:00:04 70.66, 146.79 47.30 2.36 72
2 06/15/2014 02:50:46 -70.54, -45.68 132.83 06/15/2014 02:50:45 -70.52, -45.66 132.85 2.58 1
3 06/15/2014 03:40:15 70.34, 121.66 46.97 06/15/2014 03:41:27 70.30, 122.01 46.92 13.99 72
4 06/17/2014 18:17:46 70.63, -97.31 47.17 06/17/2014 18:17:01 70.61, -97.34 47.16 2.72 45
5 06/17/2014 19:07:16 -70.52, 70.16 132.94 06/17/2014 19:07:43 -70.52, 70.12 132.94 1.29 27
6 06/20/2014 09:44:36 -71.39,-147.87 132.13 06/20/2014 09:43:29 -71.45,-150.31 132.01 86.67 67
7 06/20/2014 10:34:16 70.58, 18.51 47.09 06/20/2014 10:33:58 70.56, 18.51 47.07 2.58 18
8 06/20/2014 11:23:46 -70.47,-174.02 133.03 06/20/2014 11:24:40 -70.47,-174.02 133.04 0.90 54
9 06/23/2014 02:01:19 -70.63, -33.19 132.87 06/23/2014 02:00:11 -70.63, -33.12 132.86 2.41 68
10 06/23/2014 02:50:46 70.52, 134.30 47.04 06/23/2014 02:50:55 70.52, 134.36 47.03 2.34 9
11 06/23/2014 03:40:21 -70.14, -58.63 133.34 06/23/2014 03:41:32 -70.16, -57.75 133.35 33.15 71
12 06/25/2014 18:17:47 -70.61, 82.66 132.83 06/25/2014 18:17:07 -70.58, 82.72 132.85 3.31 40
13 06/25/2014 19:07:14 70.50,-109.85
